Location: Hopewell Observatory
(38.8698°N, 77.6988°W)
Time: 03:57:31
(UTC-04:00)

Amateur Radio Satellites - All Passes

Search period start: 20 September 2014 03:27
Search period end: 21 September 2014 03:27
Location: Hopewell Observatory, 38.8698°N, 77.6988°W

Satellite Date Start Highest point End Downlink Frequencies (MHz)
Time Altitude Azimuth
OPAL 20 Sep 03:37:54 03:40:39 15° 59° (ENE) 03:43:26 ?
JAS-1B 20 Sep 03:43:10 03:48:53 74° 286° (WNW) 03:54:37 435.800 - 435.900 CW/SSB
Oscar 16 20 Sep 03:47:02 03:51:24 28° 293° (WNW) 03:55:44 437.025 USB, Beacon 2401.1428
AO-Echo 20 Sep 03:56:43 04:01:17 43° 288° (WNW) 04:05:59 ?
PANSAT 20 Sep 03:58:02 04:00:35 17° 183° (S) 04:03:07 not established
Gurwin Techsat 1B 20 Sep 04:20:55 04:26:13 69° 286° (WNW) 04:31:28 435.225 FM
KITSAT 1 20 Sep 04:28:42 04:36:34 52° 54° (NE) 04:44:22 435.175 FM
ITAMSAT 1 20 Sep 04:31:13 04:35:32 27° 293° (WNW) 04:39:51 435.822 SSB
AO-7 20 Sep 04:31:53 04:38:48 29° 96° (E) 04:45:40 29.400 - 29.500 MHz
Uribyol 2 20 Sep 04:35:31 04:39:36 24° 295° (WNW) 04:43:40 436.500 FM
ISS 20 Sep 04:52:34 04:54:31 15° 341° (NNW) 04:56:29 145.800 FM
TMSAT-1 20 Sep 04:57:58 05:02:56 42° 290° (WNW) 05:07:54 436.925 FM
Uosat F 20 Sep 05:07:04 05:11:47 40° 99° (E) 05:16:30 435.120 FM
AO-27 20 Sep 05:07:58 05:10:17 13° 300° (WNW) 05:12:36 436.795 MHz FM
OPAL 20 Sep 05:13:44 05:18:53 73° 255° (WSW) 05:24:07 ?
RS-15 20 Sep 05:23:41 05:34:45 76° 303° (WNW) 05:45:43 29.354 - 29.394 USB, Beacon 29.352 USB
PANSAT 20 Sep 05:39:03 05:40:03 11° 195° (SSW) 05:41:03 not established
JAS-2 20 Sep 05:45:23 05:49:36 18° 93° (E) 05:54:05 435.800 - 435.900 CW/SSB, 435.910 FM
STRAND 1 20 Sep 05:57:36 06:00:50 17° 63° (ENE) 06:04:04 ?
Hamsat 20 Sep 05:59:21 06:01:28 14° 91° (E) 06:03:34 145.90 MHz
AO-7 20 Sep 06:23:52 06:31:57 60° 293° (WNW) 06:40:01 29.400 - 29.500 MHz
KITSAT 1 20 Sep 06:24:34 06:31:38 35° 253° (WSW) 06:38:41 435.175 FM
SO-50 20 Sep 06:33:46 06:37:31 22° 46° (NE) 06:41:16 436.795 FM
Uosat F 20 Sep 06:46:27 06:50:18 23° 294° (WNW) 06:54:09 435.120 FM
JAS-2 20 Sep 07:28:54 07:34:55 68° 286° (WNW) 07:41:45 435.800 - 435.900 CW/SSB, 435.910 FM
Hamsat 20 Sep 07:33:36 07:37:41 45° 287° (WNW) 07:41:41 145.90 MHz
STRAND 1 20 Sep 07:34:34 07:39:33 56° 259° (W) 07:44:34 ?
RS-15 20 Sep 07:40:44 07:49:17 25° 330° (NNW) 07:57:54 29.354 - 29.394 USB, Beacon 29.352 USB
ISS 20 Sep 08:07:54 08:10:14 17° 22° (NNE) 08:12:33 145.800 FM
UOSAT-12 20 Sep 08:09:13 08:12:23 17° 43° (NE) 08:15:31 437.025 FM, 437.400 FM
SO-50 20 Sep 08:13:40 08:18:20 50° 244° (WSW) 08:23:01 436.795 FM
AO-7 20 Sep 08:19:54 08:23:02 13° 313° (NW) 08:26:10 29.400 - 29.500 MHz
MaSat-1 20 Sep 08:25:54 08:30:48 58° 111° (ESE) 08:35:41 437.345 MHz
HO-68 20 Sep 08:38:01 08:40:43 12° 89° (E) 08:43:25 435.675 MHz FM
SO-67 20 Sep 08:41:19 08:44:37 44° 285° (WNW) 08:47:54 435.3500 MHz FM
ISS 20 Sep 09:43:58 09:47:18 82° 220° (SW) 09:50:37 145.800 FM
UOSAT-12 20 Sep 09:48:18 09:52:59 65° 242° (WSW) 09:57:35 437.025 FM, 437.400 FM
RS-15 20 Sep 10:00:48 10:07:20 17° 7° (N) 10:13:57 29.354 - 29.394 USB, Beacon 29.352 USB
MaSat-1 20 Sep 10:04:22 10:07:53 19° 307° (NW) 10:11:22 437.345 MHz
HO-68 20 Sep 10:22:09 10:29:22 81° 105° (ESE) 10:36:34 435.675 MHz FM
FUNcube-1 20 Sep 10:36:51 10:40:11 20° 93° (E) 10:43:29 145.950 - 145.970 MHz USB
Oscar 11 20 Sep 10:44:25 10:48:43 57° 100° (E) 10:52:57 145.825 FM, Beacon 2401.500 USB
UKube-1 20 Sep 11:01:48 11:06:08 67° 285° (WNW) 11:10:27 145.840 MHz, 145.915 MHz
Sapphire 20 Sep 11:10:36 11:13:10 14° 103° (ESE) 11:15:45 437.095 MHz 1200 baud AX-25 AFSK
PCSat 20 Sep 11:35:23 11:39:49 26° 108° (ESE) 11:44:15 145.825 MHz
HO-68 20 Sep 12:11:27 12:16:14 20° 303° (WNW) 12:21:00 435.675 MHz FM
FUNcube-1 20 Sep 12:12:24 12:16:41 38° 289° (WNW) 12:20:54 145.950 - 145.970 MHz USB
RS-15 20 Sep 12:14:26 12:24:25 36° 41° (NE) 12:34:39 29.354 - 29.394 USB, Beacon 29.352 USB
Oscar 11 20 Sep 12:22:29 12:24:23 13° 296° (WNW) 12:26:16 145.825 FM, Beacon 2401.500 USB
JAS-1B 20 Sep 12:38:46 12:43:16 16° 59° (ENE) 12:47:24 435.800 - 435.900 CW/SSB
Oscar 19 20 Sep 12:45:50 12:49:22 19° 64° (ENE) 12:52:55 437.125 CW, 437.150 USB
Sapphire 20 Sep 12:50:30 12:55:54 74° 299° (WNW) 13:01:20 437.095 MHz 1200 baud AX-25 AFSK
AO-27 20 Sep 13:07:20 13:09:34 13° 60° (ENE) 13:11:47 436.795 MHz FM
Oscar 10/S400 20 Sep 13:17:26 13:30:35 15° 153° (SSE) 13:40:16 145.825 - 145.975 CW/USB, Beacon 145.810 USB
PCSat 20 Sep 13:17:54 13:22:59 41° 304° (NW) 13:28:07 145.825 MHz
Oscar 16 20 Sep 13:23:10 13:28:02 43° 71° (ENE) 13:32:56 437.025 USB, Beacon 2401.1428
AO-Echo 20 Sep 13:31:09 13:34:44 22° 67° (ENE) 13:38:18 ?
Gurwin Techsat 1B 20 Sep 14:02:43 14:06:32 21° 64° (ENE) 14:10:22 435.225 FM
ITAMSAT 1 20 Sep 14:08:14 14:13:09 47° 71° (ENE) 14:18:07 435.822 SSB
Uribyol 2 20 Sep 14:12:06 14:17:07 55° 72° (ENE) 14:22:11 436.500 FM
Oscar 19 20 Sep 14:23:13 14:28:16 53° 260° (W) 14:33:22 437.125 CW, 437.150 USB
JAS-1B 20 Sep 14:24:22 14:33:07 84° 74° (ENE) 14:40:24 435.800 - 435.900 CW/SSB
RS-15 20 Sep 14:26:37 14:37:41 73° 244° (WSW) 14:49:15 29.354 - 29.394 USB, Beacon 29.352 USB
Sapphire 20 Sep 14:38:00 14:40:17 13° 319° (NW) 14:42:34 437.095 MHz 1200 baud AX-25 AFSK
TMSAT-1 20 Sep 14:38:15 14:42:51 32° 68° (ENE) 14:47:29 436.925 FM
AO-27 20 Sep 14:43:12 14:48:22 79° 257° (WSW) 14:53:35 436.795 MHz FM
Oscar 16 20 Sep 15:03:37 15:07:32 22° 266° (W) 15:11:29 437.025 USB, Beacon 2401.1428
AO-Echo 20 Sep 15:08:56 15:13:18 36° 262° (W) 15:17:38 ?
AO-7 20 Sep 15:29:34 15:36:55 37° 61° (ENE) 15:44:15 29.400 - 29.500 MHz
Gurwin Techsat 1B 20 Sep 15:41:00 15:46:07 49° 260° (W) 15:51:16 435.225 FM
ITAMSAT 1 20 Sep 15:49:14 15:52:52 19° 267° (W) 15:56:32 435.822 SSB
Uribyol 2 20 Sep 15:53:42 15:56:55 17° 268° (W) 16:00:09 436.500 FM
TMSAT-1 20 Sep 16:18:06 16:22:42 30° 264° (W) 16:27:21 436.925 FM
JAS-1B 20 Sep 16:18:35 16:24:02 18° 267° (W) 16:29:01 435.800 - 435.900 CW/SSB
Uosat F 20 Sep 16:19:06 16:23:53 49° 72° (ENE) 16:28:42 435.120 FM
Saudisat 1A 20 Sep 16:41:09 16:44:55 28° 113° (ESE) 16:48:42 436.775 MHz
RS-15 20 Sep 16:42:57 16:48:04 14° 263° (W) 16:53:18 29.354 - 29.394 USB, Beacon 29.352 USB
AO-7 20 Sep 17:21:28 17:29:26 50° 259° (WSW) 17:37:26 29.400 - 29.500 MHz
OPAL 20 Sep 17:25:22 17:29:59 33° 99° (E) 17:34:31 ?
JAS-2 20 Sep 17:41:08 17:46:02 41° 70° (ENE) 17:50:53 435.800 - 435.900 CW/SSB, 435.910 FM
Uosat F 20 Sep 17:59:38 18:02:55 18° 267° (W) 18:06:13 435.120 FM
Saudisat 1A 20 Sep 18:20:35 18:24:25 29° 310° (NW) 18:28:17 436.775 MHz
MaSat-1 20 Sep 18:20:38 18:24:23 89° 65° (ENE) 18:27:33 437.345 MHz
Hamsat 20 Sep 18:25:01 18:29:23 79° 258° (WSW) 18:33:45 145.90 MHz
KITSAT 1 20 Sep 18:55:41 19:03:05 41° 109° (ESE) 19:10:30 435.175 FM
OPAL 20 Sep 19:04:21 19:08:45 29° 295° (WNW) 19:13:05 ?
SO-67 20 Sep 19:12:44 19:16:00 42° 74° (ENE) 19:19:18 435.3500 MHz FM
JAS-2 20 Sep 19:27:31 19:31:22 20° 266° (W) 19:35:10 435.800 - 435.900 CW/SSB, 435.910 FM
STRAND 1 20 Sep 19:46:19 19:51:22 55° 101° (E) 19:56:23 ?
Sapphire 20 Sep 19:58:50 20:00:42 12° 40° (NE) 20:02:34 437.095 MHz 1200 baud AX-25 AFSK
PCSat 20 Sep 20:24:21 20:28:11 19° 47° (NE) 20:32:00 145.825 MHz
HO-68 20 Sep 20:49:04 20:55:56 54° 68° (ENE) 21:02:51 435.675 MHz FM
KITSAT 1 20 Sep 20:50:43 20:58:23 45° 308° (NW) 21:06:06 435.175 FM
STRAND 1 20 Sep 21:26:43 21:30:05 18° 297° (WNW) 21:33:27 ?
FUNcube-1 20 Sep 21:33:11 21:35:30 14° 64° (ENE) 21:37:50 145.950 - 145.970 MHz USB
Oscar 11 20 Sep 21:38:12 21:42:14 38° 72° (ENE) 21:46:17 145.825 FM, Beacon 2401.500 USB
Sapphire 20 Sep 21:39:45 21:45:11 67° 60° (ENE) 21:50:34 437.095 MHz 1200 baud AX-25 AFSK
UKube-1 20 Sep 21:55:48 22:00:07 89° 76° (ENE) 22:04:29 145.840 MHz, 145.915 MHz
PCSat 20 Sep 22:06:42 22:12:06 67° 245° (WSW) 22:17:27 145.825 MHz
SO-50 20 Sep 22:27:12 22:31:38 74° 119° (ESE) 22:36:13 436.795 FM
HO-68 20 Sep 22:38:03 22:43:55 27° 265° (W) 22:49:49 435.675 MHz FM
KITSAT 1 20 Sep 22:52:39 22:56:12 13° 333° (NNW) 22:59:47 435.175 FM
FUNcube-1 20 Sep 23:07:04 23:11:22 54° 260° (W) 23:15:48 145.950 - 145.970 MHz USB
Oscar 11 20 Sep 23:15:37 23:18:32 18° 267° (W) 23:21:29 145.825 FM, Beacon 2401.500 USB
Sapphire 20 Sep 23:24:57 23:27:58 15° 256° (WSW) 23:30:59 437.095 MHz 1200 baud AX-25 AFSK
UOSAT-12 20 Sep 23:58:04 00:02:31 51° 117° (ESE) 00:07:04 437.025 FM, 437.400 FM
SO-50 21 Sep 00:10:08 00:12:45 15° 318° (NW) 00:15:24 436.795 FM
Saudisat 1A 21 Sep 01:09:04 01:12:15 19° 46° (NE) 01:15:25 436.775 MHz
Oscar 16 21 Sep 01:37:21 01:40:34 17° 92° (E) 01:43:46 437.025 USB, Beacon 2401.1428
UOSAT-12 21 Sep 01:39:29 01:42:58 20° 315° (NW) 01:46:30 437.025 FM, 437.400 FM
PANSAT 21 Sep 01:53:39 01:55:50 15° 171° (S) 01:58:01 not established
JAS-1B 21 Sep 02:12:56 02:16:45 18° 93° (E) 02:20:36 435.800 - 435.900 CW/SSB
ITAMSAT 1 21 Sep 02:23:18 02:26:55 19° 93° (E) 02:30:31 435.822 SSB
ISS 21 Sep 02:25:10 02:28:27 66° 139° (SE) 02:31:46 145.800 FM
Uribyol 2 21 Sep 02:26:51 02:30:50 22° 94° (E) 02:34:48 436.500 FM
Oscar 19 21 Sep 02:36:01 02:41:09 61° 101° (E) 02:46:13 437.125 CW, 437.150 USB
RS-15 21 Sep 02:41:10 02:48:02 19° 100° (E) 02:54:48 29.354 - 29.394 USB, Beacon 29.352 USB
Saudisat 1A 21 Sep 02:47:49 02:52:05 49° 243° (WSW) 02:56:20 436.775 MHz
KITSAT 1 21 Sep 02:50:21 02:55:55 20° 36° (NE) 03:01:27 435.175 FM
TMSAT-1 21 Sep 02:56:47 02:59:16 13° 90° (E) 03:01:45 436.925 FM
AO-27 21 Sep 02:57:41 03:02:37 41° 99° (E) 03:07:31 436.795 MHz FM
Oscar 16 21 Sep 03:15:11 03:20:14 55° 288° (WNW) 03:25:15 437.025 USB, Beacon 2401.1428
AO-Echo 21 Sep 03:16:24 03:21:17 76° 102° (ESE) 03:26:18 ?
